This is the latest recevied weather packets stored in our database for station/object HA3YA-WX. If no packets are shown the sender has not sent any weather packets the latest 10 day(s).
| Time | Temp. | Humidity | Pressure | Rain* | Wind** | Luminosity | Snow |
|---|---|---|---|---|---|---|---|
| 1777282892 | 17.78° C | 33% | 1010 hPa | - | - | - | - |
| 1777282292 | 17.78° C | 32% | 1010 hPa | - | - | - | - |
| 1777281692 | 17.78° C | 33% | 1011 hPa | - | - | - | - |
| 1777281093 | 17.22° C | 34% | 1011 hPa | - | - | - | - |
| 1777280492 | 17.22° C | 34% | 1011 hPa | - | - | - | - |
| 1777279892 | 16.67° C | 35% | 1011 hPa | - | - | - | - |
| 1777279292 | 16.11° C | 35% | 1011 hPa | - | - | - | - |
| 1777278692 | 15.56° C | 36% | 1011 hPa | - | - | - | - |
| 1777278092 | 14.44° C | 37% | 1011 hPa | - | - | - | - |
| 1777277492 | 13.89° C | 38% | 1011 hPa | - | - | - | - |
| 1777276892 | 13.33° C | 38% | 1011.4 hPa | - | - | - | - |
| 1777276292 | 13.33° C | 39% | 1011 hPa | - | - | - | - |
| 1777275692 | 13.33° C | 39% | 1011 hPa | - | - | - | - |
| 1777275092 | 13.33° C | 40% | 1011 hPa | - | - | - | - |
| 1777274492 | 13.33° C | 40% | 1011 hPa | - | - | - | - |
| 1777273892 | 12.78° C | 41% | 1011.8 hPa | - | - | - | - |
| 1777273293 | 11.67° C | 42% | 1011.8 hPa | - | - | - | - |
| 1777272693 | 11.67° C | 42% | 1011.8 hPa | - | - | - | - |
| 1777272092 | 11.11° C | 43% | 1011.8 hPa | - | - | - | - |
| 1777271492 | 10.56° C | 43% | 1011.8 hPa | - | - | - | - |
| 1777270893 | 10.56° C | 44% | 1011.8 hPa | - | - | - | - |
| 1777270293 | 10° C | 45% | 1011.8 hPa | - | - | - | - |
| 1777269692 | 9.44° C | 46% | 1011.7 hPa | - | - | - | - |
| 1777269092 | 8.33° C | 47% | 1011.7 hPa | - | - | - | - |
| 1777268493 | 7.78° C | 47% | 1011.7 hPa | - | - | - | - |
* Rain since midnight (hover to see other rain measurements)
** Current wind speed in m/s (hover to see current wind gust speed)